Lid_Strength_Index
0 -0 0 -0 -0 -0 0 1 2 5 4 2 2 -1 -1 -1 -1 -1 -1 -0 0 0 0 0 -0 -0 -1 -1 -1 -1 -1 -2 -2 -1 -1 -1 -1 -1
0 0 0 0 0 -0 0 1 1 3 4 1 1 0 -1 -1 -1 -1 -1 -0 1 0 0 0 0 0 -0 -0 -1 -1 -1 -1 -1 -1 -1 -1 -1 -0
0 0 0 -0 1 0 0 1 1 1 3 2 1 -0 -0 -0 -0 -1 -1 -1 -1 1 0 1 1 0 0 -0 0 -0 -0 -0 -0 -0 -0 -0 0 0
1 1 1 0 0 0 0 1 1 1 2 3 1 1 1 -0 -0 -0 -0 -0 -1 0 1 1 2 1 1 1 1 1 1 0 0 0 0 0 1 1
0 1 0 0 1 1 1 1 1 1 1 2 2 1 1 0 1 -0 -0 -0 -1 0 1 2 2 2 2 2 2 2 3 2 2 2 2 2 1 1
-0 0 0 0 0 1 1 1 1 2 2 2 2 2 1 0 1 2 2 0 0 -1 -1 0 1 1 2 2 3 3 4 4 4 4 4 3 2 2
1 -0 -0 -0 0 0 1 1 1 2 2 2 2 2 2 2 2 1 2 1 1 -0 0 0 0 0 2 2 2 2 4 4 5 5 5 4 4 3
1 0 -0 0 0 1 1 1 1 2 2 2 2 3 2 2 1 2 2 3 4 -0 1 1 1 3 3 3 3 3 4 4 4 4 5 5 4 4
1 1 1 -0 0 -0 0 1 1 2 2 1 2 2 2 1 1 2 2 2 3 1 1 2 2 3 3 3 4 4 4 4 4 4 5 5 5 5
0 0 0 0 1 1 0 1 0 0 0 0 1 1 0 0 1 1 1 1 1 1 0 3 4 5 4 4 4 4 5 4 4 5 5 5 6 6
-0 -0 0 0 3 3 1 1 1 1 1 1 1 2 2 2 2 1 2 3 3 2 1 3 4 5 4 4 4 4 4 5 5 5 5 6 7 7
0 0 3 2 4 5 1 1 2 1 1 0 0 0 0 0 1 0 1 3 3 4 2 3 4 4 5 4 4 3 4 6 6 6 5 6 7 3
1 1 0 4 5 5 4 0 1 0 1 1 1 0 0 1 2 1 1 1 2 3 1 1 4 4 5 6 4 3 3 5 3 5 7 7 7 4
1 1 0 5 6 5 2 4 4 1 0 1 1 2 2 2 2 1 0 -0 -0 1 0 2 3 4 5 5 6 4 3 3 3 4 3 6 6 5
0 3 5 6 4 3 4 4 2 1 1 2 2 2 1 1 0 1 0 -0 1 1 -0 0 2 3 3 5 5 5 4 4 4 3 3 3 2 1
2 0 2 3 5 3 1 0 0 0 1 1 1 1 0 1 3 2 1 1 1 3 2 1 2 3 4 3 4 5 5 5 3 3 2 1 0 -0
5 0 1 1 1 1 1 0 0 0 1 1 1 1 1 1 1 2 1 1 2 2 3 2 2 2 3 4 5 4 4 4 3 2 1 2 0 -1
1 1 2 1 2 1 1 1 0 1 1 1 1 1 1 2 1 1 1 2 2 2 2 2 2 3 3 3 3 3 3 2 2 2 1 1 1 -1
1 1 1 1 1 1 1 1 1 1 -0 0 1 1 1 1 1 1 1 1 2 2 1 1 1 2 3 5 3 5 1 0 1 1 0 1 1 -0
1 1 1 1 1 1 1 1 1 1 1 1 0 1 0 1 1 1 1 2 2 1 1 1 1 1 3 3 3 3 7 0 1 1 1 -0 -1 3
1 0 -0 -0 0 0 0 0 1 1 1 1 1 1 1 1 1 1 1 5 2 1 2 2 0 2 1 0 2 3 3 7 2 -0 0 1 1 1
0 0 -0 -0 -0 -0 -0 -0 1 1 1 1 1 1 1 1 1 1 1 2 1 1 1 0 -0 -1 1 2 2 1 1 1 3 2 2 2 -0 2
0 -0 -0 -0 -1 -1 -1 -0 1 1 1 1 1 0 0 1 0 0 1 1 1 1 1 2 1 2 2 1 1 1 0 1 1 0 -0 2 3 3